Regional Weather Roundup
Issued by NWS

Home | Current Version | Previous Version | Graphics & Text | Print | Product List | Glossary On
Versions: 1 2 3 4 5 6 7 8 9 10 11 12 13 14 15 16 17 18 19 20 21 22 23 24 25 26 27 28 29 30 31 32 33 34 35 36 37 38 39 40 41 42 43 44 45 46 47 48 49 50
945
ASUS44 KMEG 260400
RWRTN
TENNESSEE HOURLY STATE WEATHER ROUNDUP
NATIONAL WEATHER SERVICE MEMPHIS TN
1100 PM CDT SUN SEP 25 2016

TNZ002-004-019-021-049-052-054-088>092-260500-
WEST TENNESSEE

CITY           SKY/WX    TMP DP  RH WIND       PRES   REMARKS
MEMPHIS INTL   PTCLDY    81  67  62 CALM      30.02R
NWS MEMPHIS      N/A     74 N/A N/A MISG        N/A
JACKSON          N/A    N/A N/A N/A MISG      30.02F
DYERSBURG      CLEAR    N/A N/A N/A MISG      30.01F
UNION CITY     CLEAR     72  72 100 CALM      30.01F
PARIS          CLEAR     68  64  88 CALM      30.04F
LEXINGTON      CLEAR     70  68  94 CALM      30.03F
$$

TNZ008-025-027-028-033-062-065-066-260500-
NORTH MIDDLE TENNESSEE

CITY           SKY/WX    TMP DP  RH WIND       PRES   REMARKS
NASHVILLE      CLEAR     74  66  76 CALM      30.03F
CLARKSVILLE    CLEAR     70  67  90 CALM      30.03S
SMYRNA         CLEAR     70  66  87 CALM      30.04S
COOKEVILLE     CLEAR     70  68  94 CALM      30.05F
CROSSVILLE     PTCLDY    66  64  93 CALM      30.11F
$$

TNZ061-075-076-078-094-096-097-260500-
SOUTH MIDDLE TENNESSEE

CITY           SKY/WX    TMP DP  RH WIND       PRES   REMARKS
SHELBYVILLE    MOCLDY    72  68  88 SE3       30.05F
$$

TNZ017-018-042-046-047-260500-
NORTHEAST TENNESSEE

CITY           SKY/WX    TMP DP  RH WIND       PRES   REMARKS
TRI CITIES     CLEAR     66  63  90 CALM      30.10F
$$

TNZ012-013-036-069-073-074-260500-
CENTRAL EAST TENNESSEE

CITY           SKY/WX    TMP DP  RH WIND       PRES   REMARKS
KNOXVILLE      CLEAR     76  63  64 CALM      30.04F
OAK RIDGE      CLEAR     73  66  78 CALM      30.06F
GATLINBURG     CLEAR     70  63  78 CALM      30.05F
$$

TNZ083-085-099-260500-
SOUTHEAST TENNESSEE

CITY           SKY/WX    TMP DP  RH WIND       PRES   REMARKS
CHATTANOOGA    PTCLDY    76  65  68 CALM      30.04S
$$

SKY/WX REPORTED AS FAIR MEANS FEW OR NO CLOUDS BELOW
12 THOUSAND FEET.





USA.gov is the U.S. government's official web portal to all federal, state and local government web resources and services.